CAT,Max TemperatureF,Mean TemperatureF,Min TemperatureF,Max Dew PointF,MeanDew PointF,Min DewpointF,Max Humidity, Mean Humidity, Min Humidity, Max Sea Level PressureIn, Mean Sea Level PressureIn, Min Sea Level PressureIn, Max VisibilityMiles, Mean VisibilityMiles, Min VisibilityMiles, Max Wind SpeedMPH, Mean Wind SpeedMPH, Max Gust SpeedMPH,PrecipitationIn, CloudCover, Events, WindDirDegrees
2012-12-1,84,76,67,64,53,48,58,42,31,30.12,30.05,29.98,6,6,6,22,16,28,0.00,6,,91
2012-12-2,80,73,66,64,59,54,73,59,45,30.18,30.09,30.04,6,6,6,18,12,,0.00,6,,87
2012-12-3,91,78,66,66,60,50,94,67,34,30.06,30.01,29.95,6,6,6,22,7,18,0.00,5,Rain-Thunderstorm,91
2012-12-4,91,77,63,67,63,52,94,63,26,30.04,29.94,29.83,6,6,4,10,4,,0.00,2,,80
2012-12-5,86,75,64,68,64,59,100,72,45,30.04,29.98,29.89,6,6,5,18,7,,0.00,4,Rain-Thunderstorm,92
2012-12-6,82,76,69,68,66,63,94,76,57,30.12,30.05,30.01,6,6,6,18,8,,0.00,2,,101
2012-12-7,86,76,66,66,63,59,94,64,40,30.15,30.06,29.95,6,6,6,14,7,,0.00,2,,101
2012-12-8,89,78,66,66,61,50,94,56,26,30.06,30.02,29.92,6,6,6,9,4,,0.00,2,,74
2012-12-9,92,82,71,68,62,55,78,50,27,30.04,29.96,29.83,6,6,6,17,9,,0.00,2,,110
2012-12-10,76,72,69,68,65,61,94,76,57,30.01,29.94,29.86,6,6,6,18,9,,0.00,5,Rain,122
2012-12-11,80,72,64,68,65,63,100,89,58,30.12,29.95,29.86,6,6,6,30,8,,0.00,2,Rain-Thunderstorm,124
2012-12-12,71,66,62,64,64,61,100,88,78,30.12,30.05,29.98,6,6,6,20,12,,0.00,7,,103
2012-12-13,73,68,64,64,62,61,94,84,69,30.12,30.06,30.01,6,6,6,16,10,,0.00,5,,110
2012-12-14,86,74,62,64,59,54,94,63,33,30.06,30.02,29.95,6,6,6,21,7,,0.00,1,,105
2012-12-15,87,76,64,66,60,57,78,58,40,30.04,29.97,29.89,6,6,6,12,6,,0.00,2,,109
2012-12-16,91,80,69,68,65,61,83,71,46,29.98,29.94,29.86,6,6,6,17,4,,0.00,3,Thunderstorm,306
2012-12-17,87,78,69,68,64,59,88,65,46,30.01,29.95,29.86,6,6,6,16,8,,0.00,2,,103
2012-12-18,87,78,68,64,61,57,83,57,40,30.06,30.01,29.92,6,6,6,18,8,23,0.00,4,,107
2012-12-19,88,76,64,61,59,55,83,51,27,30.06,30.01,29.89,6,6,6,13,8,,0.00,1,,110
2012-12-20,93,80,66,62,57,52,78,43,17,30.01,29.94,29.86,6,6,6,13,6,,0.00,2,,356
2012-12-21,89,76,62,61,55,50,73,45,30,30.06,30.01,29.95,6,6,6,22,8,,0.00,1,,106
2012-12-22,93,81,69,54,50,46,56,38,23,30.09,30.02,29.92,6,6,6,17,7,,0.00,1,,103
2012-12-23,93,78,62,55,50,46,59,38,23,30.06,30.00,29.89,6,6,6,14,6,,0.00,1,,88
2012-12-24,93,78,64,66,56,50,77,45,26,30.06,29.99,29.89,6,6,6,12,4,,0.00,1,,27
2012-12-25,95,80,66,64,60,54,68,54,25,30.04,29.98,29.86,6,6,6,16,6,,0.00,2,,322
2012-12-26,93,81,69,68,62,59,83,54,34,30.04,29.96,29.86,6,6,6,14,7,,0.00,3,Thunderstorm,337
2012-12-27,89,79,69,68,67,64,88,73,46,30.04,29.96,29.86,6,6,6,16,6,,0.00,3,Rain-Thunderstorm,31
2012-12-28,91,80,68,68,66,61,94,67,38,30.01,29.94,29.86,6,6,6,25,8,,0.00,2,Rain-Thunderstorm,316
2012-12-29,96,80,64,68,64,57,100,61,27,30.01,29.95,29.86,6,6,6,21,6,,0.00,2,Rain-Thunderstorm,69
2012-12-30,91,80,68,73,65,59,94,68,46,30.04,29.97,29.89,6,6,6,17,5,,0.00,2,Rain-Thunderstorm,349
2012-12-31,87,78,68,70,66,64,94,75,46,30.04,29.96,29.86,6,6,6,13,5,,0.00,3,,331